Regional Weather Roundup
Issued by NWS Upton, NY

Current Version | Previous Version | Graphics & Text | Print | Product List | Glossary On
Versions: 1 2 3 4 5 6 7 8 9 10 11 12 13 14 15 16 17 18 19 20 21 22 23 24 25 26 27 28
000
ASUS41 KOKX 242009
RWROKX

REGIONAL WEATHER ROUNDUP
NATIONAL WEATHER SERVICE NEW YORK NY
400 PM EDT WED MAY 24 2017

NOTE: "FAIR" INDICATES FEW OR NO CLOUDS BELOW 12,000 FEET WITH NO
SIGNIFICANT WEATHER AND/OR OBSTRUCTIONS TO VISIBILITY.

NYZ071-072-176-178-NJZ106-104-242100-
NEW YORK CITY METRO AREA

CITY           SKY/WX    TMP DP  RH WIND       PRES   REMARKS
Central Park   CLOUDY    67  48  50 NE6       29.79R
Wall St Helipt CLOUDY    68  55  63 W3        29.77F
Bronx Bot Gard   N/A     64  45  48 E8        29.78F
LaGuardia APRT CLOUDY    66  47  50 NE13      29.76R
Kennedy INTL   CLOUDY    66  56  70 S7        29.78R
Breezy Point     N/A     61 N/A N/A S5          N/A
Newark/Liberty CLOUDY    69  49  48 E6        29.75S
Teterboro      CLOUDY    68  46  45 E10       29.76R
$$

NYZ177-179-078>081-242100-
LONG ISLAND NEW YORK

CITY           SKY/WX    TMP DP  RH WIND       PRES   REMARKS
Jones Beach      N/A     59 N/A N/A E10G16      N/A
Matinecock PT    N/A     63 N/A N/A E16         N/A
Farmingdale    CLOUDY    64  55  72 SE12      29.78R
MacArthur/ISP  CLOUDY    66  53  63 SE10      29.77R
Shirley        CLOUDY    64  54  69 SE12      29.78R
Mt Sinai Harb    N/A    N/A N/A N/A N6          N/A
Westhampton    CLOUDY    61  50  67 SE9       29.79R
East Hampton   CLOUDY    61  51  70 E10       29.77R
Montauk          N/A     62  51  67 E8        29.79R
$$

NYZ052-065-067-242100-
HUDSON VALLEY

CITY           SKY/WX    TMP DP  RH WIND       PRES   REMARKS
White Plains   CLOUDY    66  50  56 SE10      29.78R
Larchmont Harb   N/A     61 N/A N/A NE12        N/A
Croton O-T Hud   N/A     70 N/A N/A SE10G17     N/A
Newburgh       PTSUNNY   72  52  49 E12       29.77R
Montgomery     CLOUDY    74  49  41 SE9       29.74S
Poughkeepsie   CLOUDY    73  48  41 E8        29.74R
Albany         PTSUNNY   74  49  41 SE7       29.74S
$$

NJZ001-105-106-008-010-013-015-019>022-104-242100-
NEW JERSEY

CITY           SKY/WX    TMP DP  RH WIND       PRES   REMARKS
Newark/Liberty CLOUDY    69  49  48 E6        29.75S
Teterboro      CLOUDY    68  46  45 E10       29.76R
Caldwell       CLOUDY    71  48  43 E12       29.76S
Somerville     PTSUNNY   71  54  54 MISG      29.74S
Linden         NOT AVBL
Perth Amboy      N/A     63 N/A N/A SE9         N/A
Sussex         CLOUDY    70  51  51 SE10      29.76R
Andover          N/A     70  49  47 VRB3      29.76R
Trenton        CLOUDY    70  52  52 E13       29.75S
Millville      CLOUDY    68  55  63 NE10      29.74F
Atlantic City  PTSUNNY   66  51  58 E15       29.76S
Wrightstown    CLOUDY    66  50  56 E8        29.74S
Toms River     CLOUDY    65  50  58 E8        29.77S
Belmar         CLOUDY    63  52  67 E9        29.79R
$$

PAZ047>061-062-071-242100-
EASTERN PENNSYLVANIA

CITY           SKY/WX    TMP DP  RH WIND       PRES   REMARKS
Philadelphia   CLOUDY    70  51  51 SE10      29.75F
Allentown      CLOUDY    71  51  49 E9        29.74F
Scranton       PTSUNNY   72  48  42 SE9       29.72R
$$

CTZ002-004>006-009-010-012-RIZ004-006-007-MAZ004-011-015-242100-
SOUTHERN NEW ENGLAND
 IN CT

CITY           SKY/WX    TMP DP  RH WIND       PRES   REMARKS
Bradley INTL   PTSUNNY   74  47  38 E13       29.76R
Hartford       MOSUNNY   72  53  51 E7        29.75R
Danbury        CLOUDY    67  51  56 E8        29.78R
Wtrbury/Oxford PTSUNNY   68  48  49 E8        29.79R
Bridgeport     CLOUDY    64  52  64 SE8       29.78R
Meriden        CLOUDY    70  53  54 CALM      29.77R
New Haven      PTSUNNY   64  51  62 SE10      29.78R
Chester          N/A     66  54  63 S9        29.78R
Groton         CLOUDY    61  51  70 SE20G25   29.77R
Wilimantic     CLOUDY    72  50  45 E9        29.76R

 IN RI

CITY           SKY/WX    TMP DP  RH WIND       PRES   REMARKS
Providence     PTSUNNY   68  50  52 E10       29.77R
Block Island   CLOUDY    59  52  77 E14G20    29.78R
Westerly       CLOUDY    65  53  65 SE13      29.78R
 IN MA

CITY           SKY/WX    TMP DP  RH WIND       PRES   REMARKS
Boston         PTSUNNY   62  51  67 E8        29.79F
Worcester      CLOUDY    66  45  46 NE8       29.80R
Westfield      NOT AVBL
Provincetown   MOSUNNY   62  51  67 E12       29.79F
Nantucket      CLOUDY    58  50  75 NE17G26   29.76F
$$

ANZ330-335-338-340-345-350-353-355-242100-
COASTAL MARINE OBSERVATIONS


STATION/POSITION TIME  SKY/WX   TEMP    WIND        PRES    VSBY  WAVE
                                AIR SEA DIR/SP/G                  HT/PER
                 (UTC)          (F)     (DEG/KT/KT) (MB)    (MI)  (FT/S)
NY HARB ENTRANCE 1850            58 58   90/ 10/ 10 1007.9          3/ 7
20 S FIRE ISLAND 1950            56 55   60/ 16/ 19 1007.0          5/ 8
GREAT SOUTH BAY  1915            59 65  110/ 16/ 17   N/A
23 SSW MONTAUK P 1850            54 55              1007.6          4/ 6
15 E BARNEGAT LI 1930               58                N/A           6/ 8
HUDSON CANYON    1850            54 53   40/ 17/ 21 1005.5          6/ 7
KINGS POINT      1936            64 57   50/  7/  9 1008.0
EXECUTION ROCKS  1945            63                   N/A
CENTRAL LI SOUND 1930            60     100/ 10/ 12   N/A           0
EASTERN LI SOUND NOT AVBL
ROBBINS REEF     1936            61     160/  9/ 11 1008.6
$$


>>>>>>>>>>>>>>>>>>>>>>>>>>>> KEY <<<<<<<<<<<<<<<<<<<<<<<<<<<
>                                                          <
>     SKY/WX - Sky Condition/Present Weather               <
>     TMP    - Temperature in Fahrenheit                   <
>     DP     - Dew Point in Fahrenheit                     <
>     RH     - Relative Humidity in Percent                <
>     WIND   - Direction (from) and Speed in MPH           <
>     PRES   - Mean Sea Level Pressure (inches of Hg)      <
>     WCI    - Wind Chill Index                            <
>     VSB    - VISIBILITY IN MILES                         <
>     HX     - HEAT INDEX                                  <
>     TC     - TEMPERATURE IN CELSIUS                      <
>     VRB    - VARIABLE WIND DIRECTION                     <
>                                                          <
>>>>>>>>>>>>>>>>>>>>>>>>>>>> KEY <<<<<<<<<<<<<<<<<<<<<<<<<<<




USA.gov is the U.S. government's official web portal to all federal, state and local government web resources and services.